STARLINK-1718 (46674 NORAD) Tracking and Keplerian Element Data

This shows tracking and keplerian element data for the satellite.

Feedback or suggestion? Click here.




ElementValue
Catalog46674
NameSTARLINK-1718
Epoch Orbit685
Epoch Day333.00002315
Epoch Year2020
RAAN270.1515
Inclination53.0562
Eccentricity0.0001006
Argument of Perigee71.7219
Mean Anonmoly282.3346
Mean Motion15.62748584
Decay Rate-0.00014644
L11 46674U 20073E 20333.00002315 -.00014644 00000-0 -15442-3 0 9991
L22 46674 53.0562 270.1515 0001006 71.7219 282.3346 15.62748584 6852

Live tracking and technical data element details for STARLINK-1718 (NORAD 46674). STARLINK-1718 can be tracked NOW for your location showing map with azimuth and elevation plus other details from your city location.

Track the satellite on the map from your city or location and see movement details for azimuth, elevation, latitude, longitude, range, height, and movement on the map or in text.







IsCatalogInMostPopularTable: catalog: 46674, numindb: 7
Update: records affected: 1



GetName: 46674 STARLINK-1718

Hit Count: updated at: Sun, 29 Nov 2020 10:56:06 GMT